| time (UTC) | temp C | wind direction | speed KPH | gust KPH | rain 1hr cm | rain 24hr cm | rain mn cm | humidity % | barometer mb |
| 20260505111904 | 23 | 195 | 4.8 | 12.9 | 0.00 | 0.00 | 0.00 | 84 | 1008.9 |
| 20260505111404 | 23 | 200 | 3.2 | 8.0 | 0.00 | 0.00 | 0.00 | 84 | 1008.9 |
| 20260505110904 | 23 | 199 | 3.2 | 14.5 | 0.00 | 0.00 | 0.00 | 84 | 1009.1 |
| 20260505110405 | 23 | 185 | 4.8 | 14.5 | 0.00 | 0.00 | 0.00 | 84 | 1009.2 |
| 20260505101905 | 22 | 147 | 1.6 | 8.0 | 0.00 | 0.00 | 0.00 | 83 | 1009.0 |
| 20260505101405 | 22 | 173 | 1.6 | 11.3 | 0.00 | 0.00 | 0.00 | 83 | 1008.9 |
| 20260505100904 | 22 | 171 | 4.8 | 11.3 | 0.00 | 0.00 | 0.00 | 83 | 1008.8 |
| 20260505100405 | 22 | 193 | 4.8 | 11.3 | 0.00 | 0.00 | 0.00 | 83 | 1008.7 |
| 20260505095904 | 22 | 177 | 3.2 | 11.3 | 0.00 | 0.00 | 0.00 | 83 | 1008.8 |
| 20260505095404 | 22 | 189 | 4.8 | 11.3 | 0.00 | 0.00 | 0.00 | 83 | 1008.8 |
| 20260505094404 | 22 | 183 | 4.8 | 12.9 | 0.00 | 0.00 | 0.00 | 83 | 1008.9 |
| 20260505093905 | 22 | 192 | 3.2 | 8.0 | 0.00 | 0.00 | 0.00 | 83 | 1009.2 |
| 20260505093404 | 22 | 194 | 1.6 | 9.7 | 0.00 | 0.00 | 0.00 | 83 | 1009.3 |
| 20260505092403 | 22 | 185 | 3.2 | 8.0 | 0.00 | 0.00 | 0.00 | 82 | 1009.2 |
| 20260505091905 | 22 | 188 | 3.2 | 11.3 | 0.00 | 0.00 | 0.00 | 82 | 1009.1 |
| 20260505091404 | 22 | 165 | 4.8 | 11.3 | 0.00 | 0.00 | 0.00 | 82 | 1009.1 |
| 20260505090904 | 23 | 186 | 3.2 | 9.7 | 0.00 | 0.00 | 0.00 | 82 | 1009.2 |
| 20260505090405 | 23 | 184 | 3.2 | 8.0 | 0.00 | 0.00 | 0.00 | 82 | 1009.3 |
| 20260505085904 | 23 | 258 | 3.2 | 12.9 | 0.00 | 0.00 | 0.00 | 82 | 1009.2 |
| 20260505085404 | 23 | 158 | 3.2 | 12.9 | 0.00 | 0.00 | 0.00 | 82 | 1009.2 |
| 20260505084905 | 23 | 204 | 3.2 | 11.3 | 0.00 | 0.00 | 0.00 | 82 | 1009.1 |
| 20260505084404 | 23 | 208 | 4.8 | 20.9 | 0.00 | 0.00 | 0.00 | 82 | 1009.1 |
| 20260505083904 | 23 | 198 | 1.6 | 20.9 | 0.00 | 0.00 | 0.00 | 82 | 1009.1 |
| 20260505083404 | 23 | 186 | 3.2 | 12.9 | 0.00 | 0.00 | 0.00 | 82 | 1009.2 |
| 20260505082904 | 23 | 216 | 4.8 | 19.3 | 0.00 | 0.00 | 0.00 | 82 | 1009.3 |
| 20260505082404 | 23 | 195 | 9.7 | 19.3 | 0.00 | 0.00 | 0.00 | 81 | 1009.2 |
| 20260505081904 | 23 | 179 | 3.2 | 12.9 | 0.00 | 0.00 | 0.00 | 81 | 1009.3 |
| 20260505081403 | 22 | 161 | 4.8 | 11.3 | 0.00 | 0.00 | 0.00 | 82 | 1009.3 |
| 20260505080905 | 22 | 189 | 3.2 | 11.3 | 0.00 | 0.00 | 0.00 | 81 | 1009.4 |
| 20260505080404 | 22 | 198 | 4.8 | 11.3 | 0.00 | 0.00 | 0.00 | 81 | 1009.4 |
| 20260505075905 | 22 | 174 | 3.2 | 11.3 | 0.00 | 0.00 | 0.00 | 82 | 1009.5 |
| 20260505074905 | 22 | 159 | 3.2 | 16.1 | 0.00 | 0.00 | 0.00 | 82 | 1009.6 |
| 20260505074405 | 22 | 180 | 4.8 | 16.1 | 0.00 | 0.00 | 0.00 | 82 | 1009.6 |
| 20260505073404 | 22 | 232 | 6.4 | 19.3 | 0.00 | 0.00 | 0.00 | 82 | 1009.6 |
| 20260505072903 | 22 | 188 | 4.8 | 11.3 | 0.00 | 0.00 | 0.00 | 82 | 1009.6 |
| 20260505072404 | 22 | 189 | 4.8 | 12.9 | 0.00 | 0.00 | 0.00 | 82 | 1009.6 |
| 20260505071905 | 22 | 177 | 3.2 | 12.9 | 0.00 | 0.00 | 0.00 | 82 | 1009.7 |
| 20260505071404 | 22 | 194 | 1.6 | 11.3 | 0.00 | 0.00 | 0.00 | 82 | 1009.7 |
| 20260505070904 | 22 | 196 | 3.2 | 12.9 | 0.00 | 0.00 | 0.00 | 82 | 1009.7 |
| 20260505070404 | 22 | 187 | 6.4 | 12.9 | 0.00 | 0.00 | 0.00 | 82 | 1009.8 |
| 20260505065904 | 22 | 206 | 4.8 | 9.7 | 0.00 | 0.00 | 0.00 | 82 | 1010.0 |
| 20260505065405 | 22 | 214 | 3.2 | 9.7 | 0.00 | 0.00 | 0.00 | 82 | 1010.0 |
| 20260505064904 | 22 | 184 | 3.2 | 9.7 | 0.00 | 0.00 | 0.00 | 82 | 1010.1 |
| 20260505064404 | 22 | 197 | 3.2 | 14.5 | 0.00 | 0.00 | 0.00 | 82 | 1010.3 |
| 20260505063404 | 22 | 186 | 4.8 | 19.3 | 0.00 | 0.00 | 0.00 | 81 | 1010.3 |
| 20260505062904 | 22 | 186 | 3.2 | 11.3 | 0.00 | 0.00 | 0.00 | 81 | 1010.6 |
| 20260505061905 | 22 | 162 | 3.2 | 11.3 | 0.00 | 0.00 | 0.00 | 81 | 1010.5 |
| 20260505061404 | 21 | 171 | 3.2 | 11.3 | 0.00 | 0.00 | 0.00 | 81 | 1010.6 |
| 20260505060905 | 21 | 171 | 4.8 | 11.3 | 0.00 | 0.00 | 0.00 | 81 | 1010.7 |
| 20260505060405 | 21 | 175 | 6.4 | 11.3 | 0.00 | 0.00 | 0.00 | 81 | 1010.6 |
| 20260505055405 | 21 | 176 | 3.2 | 9.7 | 0.00 | 0.00 | 0.00 | 81 | 1010.6 |
| 20260505054905 | 21 | 210 | 3.2 | 8.0 | 0.00 | 0.00 | 0.00 | 80 | 1010.7 |
| 20260505054404 | 21 | 175 | 3.2 | 11.3 | 0.00 | 0.00 | 0.00 | 80 | 1010.7 |
| 20260505053904 | 21 | 171 | 3.2 | 11.3 | 0.00 | 0.00 | 0.00 | 80 | 1010.8 |
| 20260505053404 | 21 | 191 | 3.2 | 14.5 | 0.00 | 0.00 | 0.00 | 80 | 1010.7 |
| 20260505052905 | 21 | 161 | 4.8 | 14.5 | 0.00 | 0.00 | 0.00 | 80 | 1010.7 |
| 20260505052405 | 21 | 197 | 4.8 | 14.5 | 0.00 | 0.00 | 0.00 | 80 | 1010.7 |
| 20260505051904 | 21 | 180 | 3.2 | 9.7 | 0.00 | 0.00 | 0.00 | 80 | 1010.8 |
| 20260505051403 | 21 | 190 | 3.2 | 9.7 | 0.00 | 0.00 | 0.00 | 80 | 1010.9 |
| 20260505050404 | 21 | 146 | 3.2 | 14.5 | 0.00 | 0.00 | 0.00 | 80 | 1010.8 |
| 20260505040404 | 22 | 179 | 4.8 | 9.7 | 0.00 | 0.00 | 0.00 | 77 | 1011.2 |
| 20260505035905 | 22 | 156 | 3.2 | 9.7 | 0.00 | 0.00 | 0.00 | 77 | 1011.3 |
| 20260505035404 | 22 | 165 | 4.8 | 9.7 | 0.00 | 0.00 | 0.00 | 77 | 1011.3 |
| 20260505034904 | 22 | 175 | 4.8 | 14.5 | 0.00 | 0.00 | 0.00 | 77 | 1011.4 |
| 20260505034404 | 22 | 177 | 3.2 | 14.5 | 0.00 | 0.00 | 0.00 | 76 | 1011.5 |
| 20260505033904 | 22 | 172 | 4.8 | 14.5 | 0.00 | 0.00 | 0.00 | 76 | 1011.4 |
| 20260505033404 | 22 | 179 | 3.2 | 9.7 | 0.00 | 0.00 | 0.00 | 76 | 1011.4 |
| 20260505032904 | 22 | 165 | 3.2 | 9.7 | 0.00 | 0.00 | 0.00 | 75 | 1011.5 |
| 20260505032404 | 22 | 158 | 1.6 | 11.3 | 0.00 | 0.00 | 0.00 | 75 | 1011.4 |
| 20260505031904 | 22 | 167 | 3.2 | 11.3 | 0.00 | 0.00 | 0.00 | 75 | 1011.4 |
| 20260505030404 | 22 | 177 | 4.8 | 12.9 | 0.00 | 0.00 | 0.00 | 74 | 1011.5 |
| 20260505024903 | 22 | 179 | 3.2 | 12.9 | 0.00 | 0.00 | 0.00 | 74 | 1011.5 |
| 20260505024404 | 22 | 173 | 4.8 | 12.9 | 0.00 | 0.00 | 0.00 | 73 | 1011.5 |
| 20260505023404 | 22 | 163 | 4.8 | 16.1 | 0.00 | 0.00 | 0.00 | 73 | 1011.3 |
| 20260505022904 | 22 | 176 | 3.2 | 12.9 | 0.00 | 0.00 | 0.00 | 73 | 1011.4 |
| 20260505022404 | 22 | 170 | 4.8 | 12.9 | 0.00 | 0.00 | 0.00 | 73 | 1011.4 |
| 20260505021905 | 22 | 180 | 4.8 | 16.1 | 0.00 | 0.00 | 0.00 | 72 | 1011.3 |
| 20260505021404 | 22 | 167 | 6.4 | 19.3 | 0.00 | 0.00 | 0.00 | 72 | 1011.3 |
| 20260505020904 | 22 | 159 | 8.0 | 20.9 | 0.00 | 0.00 | 0.00 | 72 | 1011.2 |
| 20260505020404 | 23 | 173 | 9.7 | 20.9 | 0.00 | 0.00 | 0.00 | 72 | 1011.3 |
| 20260505015905 | 23 | 187 | 3.2 | 16.1 | 0.00 | 0.00 | 0.00 | 72 | 1011.2 |
| 20260505014903 | 23 | 186 | 4.8 | 12.9 | 0.00 | 0.00 | 0.00 | 71 | 1011.1 |
| 20260505014403 | 23 | 172 | 4.8 | 16.1 | 0.00 | 0.00 | 0.00 | 71 | 1011.1 |
| 20260505013404 | 23 | 162 | 9.7 | 19.3 | 0.00 | 0.00 | 0.00 | 71 | 1011.0 |
| 20260505012904 | 23 | 179 | 6.4 | 16.1 | 0.00 | 0.00 | 0.00 | 71 | 1011.1 |
| 20260505012404 | 23 | 181 | 3.2 | 19.3 | 0.00 | 0.00 | 0.00 | 70 | 1011.1 |
| 20260505011903 | 23 | 189 | 8.0 | 19.3 | 0.00 | 0.00 | 0.00 | 70 | 1011.1 |
| 20260505011405 | 23 | 185 | 4.8 | 19.3 | 0.00 | 0.00 | 0.00 | 69 | 1011.1 |
| 20260505010903 | 23 | 167 | 8.0 | 19.3 | 0.00 | 0.00 | 0.00 | 69 | 1011.0 |
| 20260505010404 | 23 | 173 | 8.0 | 14.5 | 0.00 | 0.00 | 0.00 | 68 | 1011.0 |
| 20260505005904 | 23 | 185 | 8.0 | 14.5 | 0.00 | 0.00 | 0.00 | 68 | 1011.0 |
| 20260505005405 | 23 | 176 | 8.0 | 14.5 | 0.00 | 0.00 | 0.00 | 67 | 1010.8 |
| 20260505004904 | 23 | 167 | 4.8 | 14.5 | 0.00 | 0.00 | 0.00 | 67 | 1010.9 |
| 20260505004404 | 23 | 174 | 6.4 | 16.1 | 0.00 | 0.00 | 0.00 | 67 | 1010.9 |
| 20260505003904 | 24 | 179 | 8.0 | 16.1 | 0.00 | 0.00 | 0.00 | 67 | 1010.9 |
| 20260505002404 | 24 | 167 | 3.2 | 22.5 | 0.00 | 0.00 | 0.00 | 65 | 1010.9 |
| 20260505001405 | 25 | 169 | 6.4 | 22.5 | 0.00 | 0.00 | 0.00 | 65 | 1011.0 |
| 20260505000905 | 25 | 171 | 8.0 | 20.9 | 0.00 | 0.00 | 0.00 | 65 | 1011.0 |
| 20260505000405 | 25 | 161 | 8.0 | 19.3 | 0.00 | 0.00 | 0.00 | 64 | 1011.0 |
| 20260504235904 | 25 | 142 | 8.0 | 24.1 | 0.00 | 0.00 | 0.00 | 64 | 1011.1 |
| 20260504235404 | 25 | 183 | 11.3 | 24.1 | 0.00 | 0.00 | 0.00 | 63 | 1011.1 |
| 20260504234905 | 25 | 158 | 9.7 | 20.9 | 0.00 | 0.00 | 0.00 | 63 | 1011.1 |
| 20260504234404 | 25 | 173 | 8.0 | 19.3 | 0.00 | 0.00 | 0.00 | 63 | 1011.0 |
| 20260504233904 | 25 | 171 | 11.3 | 19.3 | 0.00 | 0.00 | 0.00 | 62 | 1011.2 |
| 20260504233404 | 25 | 166 | 3.2 | 22.5 | 0.00 | 0.00 | 0.00 | 62 | 1011.2 |
| 20260504232905 | 26 | 178 | 8.0 | 22.5 | 0.00 | 0.00 | 0.00 | 61 | 1011.2 |
| 20260504231904 | 25 | 164 | 6.4 | 20.9 | 0.00 | 0.00 | 0.00 | 62 | 1011.4 |
| 20260504231405 | 26 | 165 | 9.7 | 20.9 | 0.00 | 0.00 | 0.00 | 62 | 1011.4 |
| 20260504230904 | 26 | 187 | 8.0 | 22.5 | 0.00 | 0.00 | 0.00 | 61 | 1011.5 |
| 20260504230404 | 26 | 204 | 6.4 | 25.7 | 0.00 | 0.00 | 0.00 | 61 | 1011.6 |
| 20260504225904 | 26 | 171 | 9.7 | 25.7 | 0.00 | 0.00 | 0.00 | 61 | 1011.6 |
| 20260504225404 | 26 | 199 | 6.4 | 22.5 | 0.00 | 0.00 | 0.00 | 61 | 1011.6 |
| 20260504224905 | 26 | 164 | 11.3 | 22.5 | 0.00 | 0.00 | 0.00 | 60 | 1011.5 |
| 20260504224404 | 26 | 157 | 11.3 | 22.5 | 0.00 | 0.00 | 0.00 | 60 | 1011.6 |
| 20260504223903 | 26 | 167 | 9.7 | 19.3 | 0.00 | 0.00 | 0.00 | 61 | 1011.7 |
| 20260504222904 | 26 | 174 | 9.7 | 19.3 | 0.00 | 0.00 | 0.00 | 60 | 1011.9 |
| 20260504222405 | 26 | 184 | 4.8 | 19.3 | 0.00 | 0.00 | 0.00 | 61 | 1012.0 |
| 20260504221404 | 26 | 187 | 4.8 | 19.3 | 0.00 | 0.00 | 0.00 | 59 | 1012.1 |
| 20260504220904 | 26 | 192 | 8.0 | 19.3 | 0.00 | 0.00 | 0.00 | 59 | 1012.1 |
| 20260504220404 | 26 | 172 | 6.4 | 19.3 | 0.00 | 0.00 | 0.00 | 59 | 1012.1 |
| 20260504215904 | 26 | 189 | 9.7 | 22.5 | 0.00 | 0.00 | 0.00 | 59 | 1012.1 |
| 20260504215404 | 26 | 170 | 8.0 | 24.1 | 0.00 | 0.00 | 0.00 | 58 | 1012.2 |
| 20260504214904 | 26 | 184 | 8.0 | 24.1 | 0.00 | 0.00 | 0.00 | 58 | 1012.3 |
| 20260504214404 | 27 | 177 | 11.3 | 20.9 | 0.00 | 0.00 | 0.00 | 57 | 1012.3 |
| 20260504213905 | 27 | 185 | 8.0 | 19.3 | 0.00 | 0.00 | 0.00 | 56 | 1012.3 |
| 20260504213404 | 27 | 180 | 6.4 | 25.7 | 0.00 | 0.00 | 0.00 | 57 | 1012.4 |
| 20260504212905 | 27 | 159 | 9.7 | 25.7 | 0.00 | 0.00 | 0.00 | 56 | 1012.3 |
| 20260504212404 | 27 | 179 | 9.7 | 20.9 | 0.00 | 0.00 | 0.00 | 56 | 1012.3 |
| 20260504211904 | 27 | 186 | 8.0 | 22.5 | 0.00 | 0.00 | 0.00 | 55 | 1012.5 |
| 20260504210904 | 28 | 163 | 8.0 | 22.5 | 0.00 | 0.00 | 0.00 | 55 | 1012.6 |
| 20260504205905 | 28 | 159 | 9.7 | 20.9 | 0.00 | 0.00 | 0.00 | 54 | 1012.6 |
| 20260504205404 | 28 | 195 | 8.0 | 20.9 | 0.00 | 0.00 | 0.00 | 52 | 1012.7 |
| 20260504204904 | 28 | 171 | 8.0 | 20.9 | 0.00 | 0.00 | 0.00 | 50 | 1012.6 |
| 20260504204404 | 29 | 167 | 8.0 | 19.3 | 0.00 | 0.00 | 0.00 | 51 | 1012.8 |
| 20260504203904 | 29 | 176 | 6.4 | 19.3 | 0.00 | 0.00 | 0.00 | 53 | 1012.8 |
| 20260504203404 | 28 | 169 | 6.4 | 16.1 | 0.00 | 0.00 | 0.00 | 53 | 1012.9 |
| 20260504202903 | 28 | 166 | 8.0 | 19.3 | 0.00 | 0.00 | 0.00 | 52 | 1013.0 |
| 20260504202405 | 28 | 202 | 8.0 | 19.3 | 0.00 | 0.00 | 0.00 | 51 | 1013.0 |
| 20260504201904 | 28 | 182 | 3.2 | 19.3 | 0.00 | 0.00 | 0.00 | 51 | 1013.1 |
| 20260504201405 | 28 | 194 | 4.8 | 22.5 | 0.00 | 0.00 | 0.00 | 51 | 1013.2 |
| 20260504200905 | 28 | 252 | 9.7 | 22.5 | 0.00 | 0.00 | 0.00 | 49 | 1013.2 |
| 20260504200405 | 28 | 213 | 4.8 | 19.3 | 0.00 | 0.00 | 0.00 | 52 | 1013.2 |
| 20260504195404 | 29 | 175 | 8.0 | 19.3 | 0.00 | 0.00 | 0.00 | 50 | 1013.4 |
| 20260504194905 | 29 | 170 | 11.3 | 19.3 | 0.00 | 0.00 | 0.00 | 49 | 1013.4 |
| 20260504193904 | 30 | 185 | 4.8 | 19.3 | 0.00 | 0.00 | 0.00 | 48 | 1013.5 |
| 20260504192905 | 30 | 203 | 6.4 | 16.1 | 0.00 | 0.00 | 0.00 | 47 | 1013.9 |
| 20260504192405 | 30 | 205 | 4.8 | 19.3 | 0.00 | 0.00 | 0.00 | 48 | 1013.9 |
| 20260504191904 | 30 | 211 | 4.8 | 19.3 | 0.00 | 0.00 | 0.00 | 50 | 1013.9 |
| 20260504191404 | 30 | 183 | 8.0 | 24.1 | 0.00 | 0.00 | 0.00 | 51 | 1013.9 |
| 20260504190905 | 29 | 150 | 9.7 | 24.1 | 0.00 | 0.00 | 0.00 | 48 | 1014.0 |
| 20260504190404 | 29 | 162 | 9.7 | 24.1 | 0.00 | 0.00 | 0.00 | 50 | 1014.0 |
| 20260504185405 | 29 | 157 | 6.4 | 20.9 | 0.00 | 0.00 | 0.00 | 49 | 1014.1 |
| 20260504184904 | 29 | 195 | 9.7 | 20.9 | 0.00 | 0.00 | 0.00 | 48 | 1014.0 |
| 20260504184405 | 29 | 204 | 8.0 | 20.9 | 0.00 | 0.00 | 0.00 | 50 | 1013.9 |
| 20260504183904 | 29 | 172 | 11.3 | 20.9 | 0.00 | 0.00 | 0.00 | 50 | 1013.9 |
| 20260504183404 | 29 | 191 | 11.3 | 19.3 | 0.00 | 0.00 | 0.00 | 48 | 1014.0 |
| 20260504182903 | 28 | 237 | 4.8 | 20.9 | 0.00 | 0.00 | 0.00 | 49 | 1014.1 |
| 20260504182403 | 28 | 173 | 11.3 | 20.9 | 0.00 | 0.00 | 0.00 | 48 | 1014.4 |
| 20260504181904 | 28 | 172 | 11.3 | 20.9 | 0.00 | 0.00 | 0.00 | 51 | 1014.4 |
| 20260504181405 | 28 | 190 | 6.4 | 19.3 | 0.00 | 0.00 | 0.00 | 52 | 1014.5 |
| 20260504180904 | 28 | 182 | 8.0 | 24.1 | 0.00 | 0.00 | 0.00 | 50 | 1014.6 |
| 20260504180404 | 28 | 195 | 8.0 | 24.1 | 0.00 | 0.00 | 0.00 | 49 | 1014.6 |
| 20260504175904 | 28 | 192 | 9.7 | 24.1 | 0.00 | 0.00 | 0.00 | 50 | 1014.7 |
| 20260504175405 | 28 | 205 | 4.8 | 24.1 | 0.00 | 0.00 | 0.00 | 52 | 1014.6 |
| 20260504174405 | 28 | 149 | 1.6 | 22.5 | 0.00 | 0.00 | 0.00 | 49 | 1014.6 |
| 20260504173904 | 28 | 188 | 9.7 | 22.5 | 0.00 | 0.00 | 0.00 | 51 | 1014.8 |
| 20260504172904 | 28 | 216 | 9.7 | 19.3 | 0.00 | 0.00 | 0.00 | 50 | 1015.0 |
| 20260504172404 | 28 | 187 | 6.4 | 19.3 | 0.00 | 0.00 | 0.00 | 51 | 1015.0 |
| 20260504171903 | 28 | 188 | 6.4 | 19.3 | 0.00 | 0.00 | 0.00 | 51 | 1015.0 |
| 20260504170904 | 28 | 181 | 8.0 | 19.3 | 0.00 | 0.00 | 0.00 | 50 | 1015.2 |
| 20260504170403 | 28 | 182 | 3.2 | 20.9 | 0.00 | 0.00 | 0.00 | 51 | 1015.2 |
| 20260504160404 | 26 | 176 | 3.2 | 19.3 | 0.00 | 0.00 | 0.00 | 54 | 1016.0 |
| 20260504150905 | 26 | 185 | 11.3 | 24.1 | 0.00 | 0.00 | 0.00 | 55 | 1015.9 |
| 20260504150404 | 26 | 219 | 11.3 | 24.1 | 0.00 | 0.00 | 0.00 | 56 | 1016.0 |
| 20260504140905 | 24 | 180 | 4.8 | 19.3 | 0.00 | 0.00 | 0.00 | 63 | 1015.8 |
| 20260504140404 | 23 | 177 | 8.0 | 19.3 | 0.00 | 0.00 | 0.00 | 64 | 1015.8 |
| 20260504130404 | 16 | 168 | 0.0 | 0.0 | 0.00 | 0.00 | 0.00 | 88 | 1016.0 |